Location: Newark
(22.3060°N, 114.2134°E)
Time: 05:20:36
(UTC+00:00)

Tiros 1 despin weight - All Passes

Search period start: 31 July 2021 00:00
Search period end: 10 August 2021 00:00
Orbit: 593 x 642 km, 48.2° (Epoch: 30 July)

Date Brightness Start Highest point End Pass type
(mag) Time Alt. Az. Time Alt. Az. Time Alt. Az.
31 Jul - 04:07:57 10° SSW 04:12:31 65° SE 04:17:08 10° NE daylight
31 Jul - 05:51:25 10° WNW 05:54:21 16° NW 05:57:18 10° N daylight
31 Jul - 12:44:06 10° NNW 12:48:26 39° NE 12:52:41 10° ESE visible
31 Jul - 14:26:20 10° W 14:29:44 21° SW 14:33:06 10° S visible
01 Aug - 02:44:49 10° SSE 02:47:33 16° SE 02:50:18 10° E daylight
01 Aug - 04:24:16 10° WSW 04:28:45 52° NW 04:33:19 10° NNE daylight
01 Aug - 11:20:38 10° N 11:22:45 13° NNE 11:24:51 10° ENE visible
01 Aug - 13:00:06 10° NW 13:04:44 88° SW 13:09:17 10° SE visible
02 Aug - 02:59:22 10° SSW 03:03:36 37° SE 03:07:54 10° ENE daylight
02 Aug - 04:41:25 10° W 04:45:10 24° NW 04:48:59 10° NNE daylight
02 Aug - 11:35:31 10° NNW 11:39:21 25° NE 11:43:08 10° E visible
02 Aug - 13:16:41 10° WNW 13:20:53 35° SW 13:25:01 10° SSE visible
03 Aug - 03:15:11 10° SW 03:19:46 87° NW 03:24:26 10° NE daylight
03 Aug - 04:59:48 10° WNW 05:01:47 12° NNW 05:03:47 10° N daylight
03 Aug - 11:51:12 10° NW 11:55:45 55° NE 12:00:14 10° ESE visible
03 Aug - 13:34:25 10° W 13:36:56 15° SW 13:39:25 10° SSW visible
04 Aug - 01:51:13 10° S 01:54:44 22° SE 01:58:19 10° ENE daylight
04 Aug - 03:31:49 10° WSW 03:36:04 37° NW 03:40:24 10° NNE daylight
04 Aug - 10:27:09 10° N 10:30:11 17° NE 10:33:12 10° ENE daylight
04 Aug - 12:07:24 10° NW 12:11:59 62° SW 12:16:29 10° SSE visible
05 Aug - 02:06:23 10° SSW 02:10:50 54° SE 02:15:21 10° NE daylight
05 Aug - 03:49:21 10° W 03:52:34 18° NW 03:55:48 10° N daylight
05 Aug - 10:42:28 10° NNW 10:46:43 34° NE 10:50:53 10° ESE daylight
05 Aug - 12:24:19 10° WNW 12:28:05 25° SW 12:31:49 10° S visible
06 Aug - 00:43:54 10° SSE 00:45:54 13° SE 00:47:56 10° E daylight
06 Aug - 02:22:32 10° SW 02:27:02 61° NW 02:31:38 10° NE daylight
06 Aug - 09:19:24 10° NNE 09:20:57 11° NNE 09:22:30 10° NE daylight
06 Aug - 10:58:22 10° NW 11:03:02 78° NE 11:07:37 10° SE daylight
07 Aug - 00:57:56 10° SSW 01:01:57 31° SE 01:06:01 10° ENE daylight
07 Aug - 02:39:30 10° W 02:43:25 27° NW 02:47:23 10° NNE daylight
07 Aug - 09:33:56 10° NNW 09:37:35 22° NE 09:41:13 10° E daylight
07 Aug - 11:14:49 10° WNW 11:19:13 42° SW 11:23:33 10° SSE visible
08 Aug - 01:13:33 10° SW 01:18:04 79° SE 01:22:40 10° NE daylight
08 Aug - 02:57:34 10° WNW 03:00:00 14° NW 03:02:25 10° N daylight
08 Aug - 09:49:31 10° NNW 09:54:01 46° NE 09:58:28 10° ESE daylight
08 Aug - 11:32:11 10° W 11:35:16 18° SW 11:38:20 10° S visible
08 Aug - 23:49:58 10° S 23:53:05 18° SE 23:56:14 10° E daylight
09 Aug - 01:30:02 10° WSW 01:34:21 43° NW 01:38:44 10° NNE daylight
09 Aug - 08:25:41 10° N 08:28:24 15° NE 08:31:05 10° ENE daylight
09 Aug - 10:05:37 10° NW 10:10:17 74° SW 10:14:53 10° SE daylight
